Location: Peterborough
(44.3091°N, 78.3197°W)
Time: 20:28:43
(UTC-04:00)

Vanguard 2 Rocket - Pass Details

Date: 22 March 2023
Orbit: 554 x 3314 km, 32.9° (Epoch: 06 June)

Event Time Altitude Azimuth Distance (km) Brightness Sun altitude
Exits shadow 03:10:05 21° 159° (SSE) 5,376 10.5 -38.9°
Drops below altitude 10° 03:15:28 10° 148° (SSE) 6,243 10.9 -38.3°
Sets 03:20:48 0° 141° (SE) 7,158 11.4 -37.7°
